| time (UTC) | temp F | wind direction | speed MPH | gust MPH | rain 1hr in | rain 24hr in | rain mn in | humidity % | barometer mb |
| 20260905204655 | 66 | 188 | 10.0 | 25.0 | 0.00 | 0.00 | 0.00 | 56 | 1017.2 |
| 20260905203046 | 67 | 229 | 11.0 | 24.0 | 0.00 | 0.00 | 0.00 | 56 | 1017.1 |
| 20260905201700 | 67 | 233 | 9.0 | 19.0 | 0.00 | 0.00 | 0.00 | 57 | 1017.0 |
| 20260905200115 | 67 | 187 | 10.0 | 20.0 | 0.00 | 0.00 | 0.00 | 55 | 1017.0 |
| 20260905194547 | 67 | 245 | 7.0 | 18.0 | 0.00 | 0.00 | 0.00 | 57 | 1016.9 |
| 20260905193101 | 68 | 201 | 10.0 | 21.0 | 0.00 | 0.00 | 0.00 | 56 | 1017.0 |
| 20260905191558 | 68 | 174 | 8.0 | 17.0 | 0.00 | 0.00 | 0.00 | 57 | 1016.9 |
| 20260905190149 | 67 | 229 | 7.0 | 18.0 | 0.00 | 0.00 | 0.00 | 57 | 1017.0 |
| 20260905184608 | 66 | 172 | 7.0 | 17.0 | 0.00 | 0.00 | 0.00 | 60 | 1017.1 |
| 20260905183050 | 65 | 226 | 7.0 | 14.0 | 0.00 | 0.00 | 0.00 | 62 | 1017.0 |
| 20260905181502 | 65 | 223 | 4.0 | 14.0 | 0.00 | 0.00 | 0.00 | 63 | 1017.1 |
| 20260905180059 | 64 | 189 | 7.0 | 15.0 | 0.00 | 0.00 | 0.00 | 65 | 1017.1 |
| 20260905174552 | 60 | 207 | 3.0 | 10.0 | 0.00 | 0.00 | 0.00 | 72 | 1017.2 |
| 20260905173000 | 53 | 204 | 0.0 | 2.0 | 0.00 | 0.00 | 0.00 | 83 | 1017.2 |
| 20260905171558 | 48 | 68 | 0.0 | 2.0 | 0.00 | 0.00 | 0.00 | 87 | 1017.4 |
| 20260905170049 | 45 | 97 | 0.0 | 2.0 | 0.00 | 0.00 | 0.00 | 89 | 1017.5 |
| 20260905164502 | 45 | 1 | 0.0 | 2.0 | 0.00 | 0.00 | 0.00 | 89 | 1017.3 |
| 20260905163054 | 45 | 85 | 0.0 | 4.0 | 0.00 | 0.00 | 0.00 | 89 | 1017.1 |
| 20260905161548 | 44 | 324 | 0.0 | 2.0 | 0.00 | 0.00 | 0.00 | 90 | 1017.1 |
| 20260905160001 | 43 | 309 | 0.0 | 2.0 | 0.00 | 0.00 | 0.00 | 90 | 1017.1 |
| 20260905154602 | 43 | 353 | 0.0 | 1.0 | 0.00 | 0.00 | 0.00 | 91 | 1017.1 |
| 20260905153050 | 43 | 357 | 0.0 | 3.0 | 0.00 | 0.00 | 0.00 | 91 | 1017.1 |
| 20260905151506 | 42 | 158 | 0.0 | 1.0 | 0.00 | 0.00 | 0.00 | 91 | 1017.2 |
| 20260905150049 | 40 | 349 | 0.0 | 1.0 | 0.00 | 0.00 | 0.00 | 92 | 1017.2 |
| 20260905144559 | 40 | 232 | 0.0 | 2.0 | 0.00 | 0.00 | 0.00 | 92 | 1017.7 |
| 20260905143051 | 39 | 357 | 0.0 | 2.0 | 0.00 | 0.00 | 0.00 | 91 | 1017.5 |
| 20260905141546 | 40 | 359 | 0.0 | 2.0 | 0.00 | 0.00 | 0.00 | 93 | 1017.4 |
| 20260905140057 | 39 | 302 | 0.0 | 1.0 | 0.00 | 0.00 | 0.00 | 91 | 1017.7 |
| 20260905134554 | 40 | 88 | 0.0 | 0.0 | 0.00 | 0.00 | 0.00 | 91 | 1017.5 |
| 20260905133043 | 40 | 195 | 0.0 | 1.0 | 0.00 | 0.00 | 0.00 | 91 | 1017.8 |
| 20260905131555 | 40 | 195 | 0.0 | 0.0 | 0.00 | 0.00 | 0.00 | 93 | 1017.8 |
| 20260905130101 | 40 | 195 | 0.0 | 2.0 | 0.00 | 0.00 | 0.00 | 91 | 1017.8 |
| 20260905124556 | 40 | 237 | 0.0 | 1.0 | 0.00 | 0.00 | 0.00 | 91 | 1017.9 |
| 20260905123102 | 41 | 46 | 0.0 | 1.0 | 0.00 | 0.00 | 0.00 | 89 | 1018.2 |
| 20260905121600 | 41 | 48 | 0.0 | 0.0 | 0.00 | 0.00 | 0.00 | 90 | 1018.4 |
| 20260905120050 | 42 | 49 | 0.0 | 2.0 | 0.00 | 0.00 | 0.00 | 89 | 1018.4 |
| 20260905114548 | 42 | 56 | 0.0 | 0.0 | 0.00 | 0.00 | 0.00 | 89 | 1018.3 |
| 20260905113055 | 42 | 79 | 0.0 | 0.0 | 0.00 | 0.00 | 0.00 | 89 | 1018.4 |
| 20260905111558 | 43 | 79 | 0.0 | 0.0 | 0.00 | 0.00 | 0.00 | 87 | 1018.6 |
| 20260905110049 | 43 | 88 | 0.0 | 0.0 | 0.00 | 0.00 | 0.00 | 86 | 1018.8 |
| 20260905104501 | 45 | 170 | 0.0 | 0.0 | 0.00 | 0.00 | 0.00 | 85 | 1018.7 |
| 20260905103059 | 46 | 172 | 0.0 | 0.0 | 0.00 | 0.00 | 0.00 | 82 | 1018.7 |
| 20260905101548 | 47 | 172 | 0.0 | 0.0 | 0.00 | 0.00 | 0.00 | 82 | 1018.8 |
| 20260905100106 | 48 | 167 | 0.0 | 2.0 | 0.00 | 0.00 | 0.00 | 80 | 1018.9 |
| 20260905094551 | 48 | 131 | 0.0 | 5.0 | 0.00 | 0.00 | 0.00 | 80 | 1019.0 |
| 20260905093045 | 47 | 247 | 1.0 | 3.0 | 0.00 | 0.00 | 0.00 | 81 | 1018.9 |
| 20260905091600 | 48 | 259 | 0.0 | 2.0 | 0.00 | 0.00 | 0.00 | 80 | 1018.9 |
| 20260905090049 | 49 | 266 | 0.0 | 2.0 | 0.00 | 0.00 | 0.00 | 78 | 1019.0 |
| 20260905084558 | 49 | 268 | 0.0 | 2.0 | 0.00 | 0.00 | 0.00 | 78 | 1019.2 |
| 20260905083100 | 49 | 296 | 0.0 | 2.0 | 0.00 | 0.00 | 0.00 | 78 | 1019.0 |
| 20260905081554 | 48 | 260 | 0.0 | 1.0 | 0.00 | 0.00 | 0.00 | 79 | 1019.2 |
| 20260905080109 | 48 | 232 | 0.0 | 2.0 | 0.00 | 0.00 | 0.00 | 75 | 1019.1 |
| 20260905074600 | 48 | 264 | 0.0 | 1.0 | 0.00 | 0.00 | 0.00 | 76 | 1019.1 |
| 20260905073052 | 49 | 264 | 0.0 | 2.0 | 0.00 | 0.00 | 0.00 | 73 | 1019.3 |
| 20260905071504 | 49 | 308 | 0.0 | 3.0 | 0.00 | 0.00 | 0.00 | 75 | 1019.4 |
| 20260905070057 | 47 | 247 | 0.0 | 1.0 | 0.00 | 0.00 | 0.00 | 77 | 1019.6 |
| 20260905064559 | 46 | 247 | 0.0 | 1.0 | 0.00 | 0.00 | 0.00 | 77 | 1019.6 |
| 20260905063100 | 48 | 246 | 0.0 | 1.0 | 0.00 | 0.00 | 0.00 | 76 | 1019.7 |
| 20260905061558 | 50 | 269 | 0.0 | 2.0 | 0.00 | 0.00 | 0.00 | 74 | 1019.6 |
| 20260905060056 | 50 | 210 | 0.0 | 1.0 | 0.00 | 0.00 | 0.00 | 73 | 1019.6 |
| 20260905054503 | 50 | 355 | 0.0 | 1.0 | 0.00 | 0.00 | 0.00 | 73 | 1019.6 |
| 20260905053107 | 52 | 355 | 0.0 | 0.0 | 0.00 | 0.00 | 0.00 | 70 | 1019.6 |
| 20260905051555 | 54 | 356 | 0.0 | 0.0 | 0.00 | 0.00 | 0.00 | 68 | 1019.4 |
| 20260905050043 | 56 | 355 | 0.0 | 0.0 | 0.00 | 0.00 | 0.00 | 65 | 1019.6 |
| 20260905044605 | 57 | 355 | 0.0 | 0.0 | 0.00 | 0.00 | 0.00 | 63 | 1019.6 |
| 20260905043105 | 59 | 355 | 0.0 | 0.0 | 0.00 | 0.00 | 0.00 | 61 | 1019.7 |
| 20260905041502 | 62 | 355 | 0.0 | 0.0 | 0.00 | 0.00 | 0.00 | 56 | 1019.8 |
| 20260905040055 | 64 | 355 | 0.0 | 1.0 | 0.00 | 0.00 | 0.00 | 53 | 1019.8 |
| 20260905034554 | 66 | 342 | 0.0 | 2.0 | 0.00 | 0.00 | 0.00 | 50 | 1019.9 |
| 20260905033058 | 67 | 255 | 1.0 | 2.0 | 0.00 | 0.00 | 0.00 | 49 | 1019.9 |
| 20260905031554 | 67 | 255 | 1.0 | 5.0 | 0.00 | 0.00 | 0.00 | 49 | 1019.9 |
| 20260905030050 | 69 | 269 | 3.0 | 7.0 | 0.00 | 0.00 | 0.00 | 46 | 1019.8 |
| 20260905024601 | 70 | 243 | 2.0 | 7.0 | 0.00 | 0.00 | 0.00 | 46 | 1019.8 |
| 20260905023054 | 69 | 229 | 3.0 | 6.0 | 0.00 | 0.00 | 0.00 | 47 | 1019.8 |
| 20260905021552 | 69 | 248 | 2.0 | 7.0 | 0.00 | 0.00 | 0.00 | 46 | 1019.9 |
| 20260905020051 | 70 | 167 | 3.0 | 7.0 | 0.00 | 0.00 | 0.00 | 44 | 1020.3 |
| 20260905014558 | 70 | 238 | 2.0 | 7.0 | 0.00 | 0.00 | 0.00 | 45 | 1020.3 |
| 20260905013047 | 69 | 277 | 3.0 | 6.0 | 0.00 | 0.00 | 0.00 | 46 | 1020.5 |
| 20260905011505 | 70 | 245 | 4.0 | 10.0 | 0.00 | 0.00 | 0.00 | 45 | 1020.7 |
| 20260905010056 | 70 | 188 | 3.0 | 7.0 | 0.00 | 0.00 | 0.00 | 45 | 1020.8 |
| 20260905004551 | 70 | 233 | 2.0 | 6.0 | 0.00 | 0.00 | 0.00 | 45 | 1020.9 |
| 20260905003053 | 70 | 214 | 1.0 | 4.0 | 0.00 | 0.00 | 0.00 | 46 | 1021.2 |
| 20260905001610 | 69 | 312 | 1.0 | 7.0 | 0.00 | 0.00 | 0.00 | 47 | 1021.3 |
| 20260905000052 | 68 | 285 | 2.0 | 5.0 | 0.00 | 0.00 | 0.00 | 49 | 1021.5 |
| 20260904234544 | 67 | 252 | 2.0 | 6.0 | 0.00 | 0.00 | 0.00 | 49 | 1021.6 |
| 20260904233107 | 67 | 219 | 3.0 | 6.0 | 0.00 | 0.00 | 0.00 | 47 | 1021.7 |
| 20260904231550 | 67 | 290 | 3.0 | 11.0 | 0.00 | 0.00 | 0.00 | 47 | 1021.9 |
| 20260904230046 | 67 | 282 | 5.0 | 12.0 | 0.00 | 0.00 | 0.00 | 46 | 1022.2 |
| 20260904224501 | 68 | 255 | 4.0 | 6.0 | 0.00 | 0.00 | 0.00 | 46 | 1022.2 |
| 20260904223055 | 66 | 251 | 2.0 | 6.0 | 0.00 | 0.00 | 0.00 | 48 | 1022.3 |
| 20260904221554 | 66 | 295 | 3.0 | 7.0 | 0.00 | 0.00 | 0.00 | 47 | 1022.5 |
| 20260904220108 | 65 | 257 | 2.0 | 6.0 | 0.00 | 0.00 | 0.00 | 46 | 1022.7 |
| 20260904214556 | 64 | 271 | 2.0 | 6.0 | 0.00 | 0.00 | 0.00 | 49 | 1022.8 |
| 20260904213050 | 63 | 149 | 1.0 | 5.0 | 0.00 | 0.00 | 0.00 | 49 | 1022.9 |
| 20260904211504 | 63 | 295 | 1.0 | 4.0 | 0.00 | 0.00 | 0.00 | 50 | 1023.0 |
| 20260904210101 | 62 | 148 | 1.0 | 5.0 | 0.00 | 0.00 | 0.00 | 52 | 1023.2 |